Helicity
114 137 133 125 127 117 113 106 98 88 81 71 67 65 65 63 64 66 74 76 70 70
139 151 156 141 143 140 130 125 110 104 93 80 73 69 69 67 62 66 73 69 70 79
172 181 178 176 171 174 161 155 145 128 116 101 90 81 79 71 66 67 69 67 69 68
144 179 187 189 185 185 190 186 180 170 159 140 125 109 104 90 83 82 88 92 85 76
150 182 195 199 192 192 183 186 176 177 172 162 149 135 127 115 113 96 96 90 95 77
127 166 195 210 209 202 194 189 187 189 180 167 150 140 129 126 120 114 110 113 107 97
121 161 190 201 198 199 203 192 187 186 181 171 160 159 153 145 131 118 116 118 106 102
117 148 161 175 181 184 199 194 196 192 187 185 188 194 186 176 152 128 120 120 115 107
116 142 144 135 151 168 180 198 221 217 222 226 215 170 143 169 163 141 137 126 124 113
105 103 115 113 109 125 155 196 210 220 244 220 219 170 148 156 228 197 176 164 162 146
68 71 78 82 82 97 140 167 193 205 224 236 216 149 136 152 288 227 169 194 194 161
63 60 59 61 66 87 121 155 187 223 231 257 232 163 157 201 338 259 187 183 187 158
49 46 51 55 60 83 122 144 179 184 210 197 235 184 171 244 383 279 160 170 177 140
47 44 45 58 77 88 96 122 147 172 192 213 243 217 176 202 328 241 152 175 195 138
Wind_Speed
28 30 32 34 36 37 39 41 42 43 46 46 47 48 50 49 47 47 46 47 44 44
29 29 29 30 34 37 40 42 42 43 46 47 47 48 50 49 48 48 46 46 43 41
33 32 33 35 37 38 41 41 42 43 44 46 46 46 47 48 46 47 46 45 46 44
38 36 37 38 39 40 42 41 41 41 43 44 44 44 46 47 47 47 46 45 46 46
45 43 42 41 42 41 42 42 43 44 44 45 44 43 44 46 46 46 46 46 46 48
53 48 45 44 44 44 44 45 45 45 45 46 46 45 44 45 45 45 44 44 44 45
61 55 53 51 49 48 47 48 47 46 46 47 47 47 47 46 47 47 47 46 46 47
70 60 57 57 56 54 51 49 47 47 48 48 49 50 49 50 51 52 52 51 50 49
72 66 63 63 62 58 54 51 48 47 47 49 50 50 50 51 54 55 56 56 53 53
75 69 66 65 65 63 58 53 49 49 49 50 50 50 50 50 54 55 53 53 54 54
74 71 69 68 68 66 60 56 54 53 52 52 53 51 49 47 47 49 50 47 47 46
75 75 74 74 72 69 65 62 59 58 57 55 54 49 48 45 43 45 46 48 43 44
74 74 75 75 77 74 71 70 67 64 59 56 55 48 43 39 38 45 49 43 43 44
75 79 79 80 79 79 77 74 71 67 61 55 48 44 38 32 37 42 44 42 42 43
Wind_Direction
336 335 333 333 333 334 334 336 338 339 341 342 343 344 343 343 343 344 343 342 345 344
331 330 328 328 329 330 330 331 333 334 335 337 338 339 340 339 339 340 340 339 339 339
323 323 323 324 322 323 324 325 326 327 330 332 334 336 336 336 336 336 336 335 334 335
321 321 322 321 321 321 321 321 321 322 324 326 328 330 332 332 333 332 331 331 329 329
324 321 319 319 319 320 319 319 318 318 319 321 324 326 327 328 328 327 327 326 326 326
324 322 319 318 318 318 317 316 315 314 314 316 318 320 321 323 323 324 323 322 322 323
323 321 321 320 318 316 315 314 314 312 311 312 313 314 315 316 318 319 319 320 319 320
322 321 322 321 319 317 314 312 311 311 310 309 309 309 309 311 312 313 314 315 315 316
324 321 320 321 321 319 315 311 309 308 307 307 307 306 306 307 308 310 310 310 312 315
327 325 323 322 322 320 317 314 308 306 305 304 304 304 303 302 305 307 308 309 311 313
331 330 328 325 324 323 321 317 313 309 306 305 305 304 303 301 304 306 309 309 310 312
332 330 329 327 326 325 323 320 316 313 309 304 304 303 302 300 304 306 309 310 309 309
333 332 330 329 326 325 323 319 316 313 310 307 304 303 301 299 301 304 308 308 306 308
334 331 329 327 327 325 323 321 318 315 313 310 306 305 301 296 302 303 306 305 307 307